Powrót do katalogu

FENGYUN 1C DEB *

AktywnySSO
NORAD 47036·DEBRIS·🇨🇳 China

Wystrzelony May 10, 1999 z Taiyuan Satellite Launch Center

Loading…

Następne Przeloty (najbliższe 24 godziny)

TLE

ŚwieżeSource: Space-Track

Epoka: Sep 14, 2026, 09:19 UTC

1 47036U 99025FBN 26257.38880495  .00000130  00000-0  86764-4 0  9991
2 47036  98.6869 299.1610 0068195  30.4280 343.0202 14.15318173638265

Śledź FENGYUN 1C DEB * w czasie rzeczywistym z AllMySat

Download on the App Store